Location: Steilacoom
(47.1700°N, 122.5700°W)
Time: 22:49:16
(UTC-08:00)

N. Korean satellite - Visible Passes

Search period start: 16 November 2019 00:00
Search period end: 26 November 2019 00:00
Orbit: 456 x 506 km, 97.2° (Epoch: 16 November)

Date Brightness Start Highest point End Pass type
(mag) Time Alt. Az. Time Alt. Az. Time Alt. Az.
16 Nov 8.1 05:43:17 10° NNE 05:46:49 40° E 05:50:18 10° SSE visible
16 Nov 9.1 17:55:09 10° SSW 17:58:15 26° W 18:01:23 10° NW visible
17 Nov 9.4 05:18:24 10° NE 05:21:17 21° E 05:24:08 10° SE visible
17 Nov 7.6 17:29:12 10° S 17:32:44 51° W 17:36:22 10° NNW visible
18 Nov 10.2 04:54:32 10° ENE 04:55:39 11° E 04:56:47 10° ESE visible
18 Nov 6.6 06:25:47 10° N 06:29:27 61° WNW 06:33:05 10° SSW visible
18 Nov 6.6 17:03:42 10° SSE 17:07:20 77° ENE 17:11:03 10° N visible
19 Nov 7.1 06:00:23 10° NNE 06:04:05 65° E 06:07:44 10° S visible
19 Nov 9.8 18:13:08 10° SW 18:15:35 17° W 18:18:05 10° NW visible
20 Nov 8.6 05:35:15 10° NNE 05:38:37 32° E 05:41:56 10° SSE visible
20 Nov 8.7 17:46:42 10° SSW 17:50:01 32° W 17:53:23 10° NNW visible
21 Nov 9.7 05:10:32 10° NE 05:13:03 17° E 05:15:31 10° SE visible
21 Nov 7.1 06:43:08 10° N 06:46:36 38° WNW 06:50:00 10° SW visible
21 Nov 7.1 17:20:55 10° S 17:24:33 65° W 17:28:15 10° NNW visible
22 Nov 6.5 06:17:34 10° N 06:21:17 77° WNW 06:24:56 10° SSW visible
22 Nov 10.2 18:31:52 10° WSW 18:32:58 11° W 18:34:04 10° WNW visible
23 Nov 7.5 05:52:14 10° NNE 05:55:52 52° E 05:59:25 10° S visible
23 Nov 9.5 18:04:29 10° SW 18:07:19 21° W 18:10:11 10° NW visible
24 Nov 9.0 05:27:12 10° NE 05:30:21 26° E 05:33:27 10° SSE visible
24 Nov 8.2 17:38:18 10° SSW 17:41:46 39° W 17:45:18 10° NNW visible
25 Nov 10.0 05:02:46 10° ENE 05:04:44 14° E 05:06:42 10° ESE visible
25 Nov 6.8 06:34:52 10° N 06:38:25 46° WNW 06:41:54 10° SW visible
25 Nov 6.8 17:12:37 10° S 17:16:19 82° WSW 17:20:04 10° NNW visible
